www.pogodaiklimat.ru

Погода и климат >> Архив погоды >> Украина >> Харьков


АРХИВ ПОГОДЫ в Харькове

Время (UTC), дата Ветер
(напр.,м/с)
 
Видим.   Явления Облачность Т
(С)
Тd
(С)
f
(%)
Тe
(С)
Тes
(С)
Комфортность P
(гПа)
Po
(гПа)
Тmin
(С)
Tmax
(С)
R
(мм)
R24
(мм)
S
(см)
21 14.11 В 3 10 км 4/0
[Ac trans]
-3.6 -7.6 74 -9 -9 холодно 1029.4 1009.5
00 15.11 В 6 10 км 9/0
[Ac trans]
-1.9 -7.7 64 -9 -9 прохладно 1028.7 1008.9
03 15.11 В 5 10 км 9/6 480 м
[St Ac trans]
-1.3 -8.1 60 -7 -7 по сезону 1029.5 1009.7
06 15.11 В 6 10 км 9/0
[Ac trans]
-0.7 -9.3 52 -7 -7 по сезону 1030.4 1010.6 -3.6
09 15.11 В 5 10 км 9/0
[Ac trans]
+1.8 -13.1 32 -3 -2 по сезону 1031.2 1011.6
12 15.11 В 6 10 км 3/0
[Ac trans]
+3.9 -14.3 25 -0 0 по сезону 1031.5 1012.0
15 15.11 СВ 5 10 км 3/0
[Ac trans]
+0.2 -15.3 30 -5 -5 прохладно 1032.9 1013.1
18 15.11 СВ 5 10 км 6/0
[Ac trans Ci fib]
-1.6 -15.0 35 -7 -7 прохладно 1034.3 1014.4 +3.9
21 15.11 СВ 5 10 км 4/0
[Ci fib]
-2.7 -14.7 39 -9 -9 холодно 1034.7 1014.7
00 16.11 СВ 6 10 км 6/0
[Ci fib]
-3.6 -13.4 47 -10 -10 холодно 1035.2 1015.1
03 16.11 СВ 5 10 км 6/0
[Ci fib]
-4.6 -13.4 50 -11 -11 холодно 1035.8 1015.6
06 16.11 СВ 6 10 км 9/0
[Ci]
-3.9 -12.8 50 -11 -11 холодно 1037.3 1017.2 -4.6
09 16.11 СВ 7 10 км 9/0
[Ac trans]
-0.8 -11.6 44 -7 -7 прохладно 1037.8 1017.9
12 16.11 СВ 8 10 км 9/0
[Ac trans]
+1.0 -12.3 36 -5 -5 прохладно 1037.1 1017.3
15 16.11 СВ 7 10 км 10/0
[Ac trans]
+0.9 -13.1 34 -5 -5 по сезону 1037.6 1017.8
18 16.11 СВ 8 10 км 10/5 1410 м
[Sc Ac und]
-0.2 -14.8 32 -7 -7 прохладно 1038.2 1018.3 +1.0
21 16.11 СВ 6 10 км 10/8 960 м
[Sc Ac und]
-0.5 -15.4 31 -6 -6 по сезону 1038.0 1018.1
00 17.11 СВ 5 10 км 10/8 1260 м
[Sc Ac und]
-0.6 -14.2 35 -6 -6 по сезону 1037.6 1017.7
03 17.11 СВ 6 10 км 10/8 1050 м
[Sc Ac und]
-1.2 -14.1 37 -7 -7 по сезону 1037.4 1017.5
06 17.11 СВ 5 10 км 9/3 1000 м
[Sc Ac trans Ci]
-2.1 -13.5 41 -8 -8 прохладно 1038.1 1018.1 -2.3
09 17.11 СВ 6 10 км 5/0
[Ac trans Ci fib]
+2.7 -13.3 30 -2 -1 по сезону 1037.2 1017.5
12 17.11 СВ 5 10 км 4/0
[Ci fib]
+4.2 -13.2 27 0 +1 по сезону 1036.0 1016.5
15 17.11 С 3 10 км 3/0
[Ci fib]
+1.6 -13.0 33 -2 -2 по сезону 1035.4 1015.7
18 17.11 С 3 10 км ясно -1.6 -12.5 43 -6 -6 по сезону 1034.7 1014.8 +4.9
21 17.11 З 2 10 км ясно -3.5 -11.6 53 -7 -7 прохладно 1033.5 1013.5
00 18.11 С 2 5000 м дымка ясно -6.8 -10.6 74 -11 -11 холодно 1031.7 1011.5
03 18.11 СЗ 2 7000 м дымка ясно -7.6 -10.7 78 -12 -12 холодно 1030.2 1009.9
06 18.11 штиль 0 5000 м дымка 3/0
[Ci fib]
-7.6 -10.7 78 -8 -8 прохладно 1028.9 1008.7 -9.8
09 18.11 З 1 10 км 5/0
[Ci fib]
+1.4 -8.8 47 0 +3 по сезону 1027.1 1007.6
12 18.11 Ю 1 10 км 5/0
[Ac trans Ci fib]
+4.8 -11.0 31 +5 +6 тепло 1025.3 1006.0
15 18.11 ЮВ 2 10 км 5/0
[Ac trans Ci fib]
-0.7 -13.6 37 -3 -3 по сезону 1026.1 1006.4
18 18.11 ЮВ 2 7000 м мгла 4/0
[Ac trans]
-3.8 -11.5 55 -7 -7 прохладно 1026.4 1006.5 +5.2
21 18.11 В 3 10 км 4/0
[Ac trans]
-3.6 -11.7 53 -8 -8 прохладно 1027.1 1007.2
00 19.11 штиль 0 4000 м дымка 5/0
[Ac trans]
-5.8 -8.8 79 -7 -7 по сезону 1027.4 1007.3
03 19.11 штиль 0 3500 м дымка 4/0
[Ac trans]
-7.9 -9.7 87 -9 -9 прохладно 1028.2 1008.0
06 19.11 штиль 0 2600 м дымка 4/0
[Ci fib]
-8.1 -9.5 90 -9 -9 прохладно 1028.5 1008.2 -8.7
09 19.11 В 5 10 км 4/0
[Ci fib]
+1.4 -12.0 36 -3 -2 по сезону 1028.0 1008.4
12 19.11 СВ 2 10 км 8/0
[Ac trans Ci fib]
+3.7 -11.6 32 +2 +3 по сезону 1027.0 1007.6
15 19.11 СВ 3 10 км 9/0
[Cs]
0.0 -12.3 39 -4 -4 по сезону 1026.4 1006.8
18 19.11 СВ 4 10 км 9/0
[Cs]
-0.1 -13.1 37 -5 -5 по сезону 1025.8 1006.2 +4.0
21 19.11 СВ 5 10 км 10/10 930 м
[Sc]
+0.4 -12.1 39 -5 -5 по сезону 1025.3 1005.7
00 20.11 СВ 6 10 км 10/10 1020 м
[Sc]
+0.2 -10.7 44 -6 -6 по сезону 1024.3 1004.7
03 20.11 СВ 5 10 км 10/10 1350 м
[Sc]
-0.6 -9.6 51 -6 -6 по сезону 1023.5 1003.9
06 20.11 СВ 6 10 км 10/0
[Ac und]
-1.2 -8.7 57 -8 -8 по сезону 1024.0 1004.3 -1.7
09 20.11 СВ 6 10 км 9/4 1000 м
[Sc As trans]
+0.2 -8.7 51 -6 -5 по сезону 1024.3 1004.7
12 20.11 СВ 7 10 км 9/5 1110 м
[Sc Ci]
+1.6 -5.4 60 -5 -4 по сезону 1023.8 1004.3
15 20.11 С 4 10 км 8/5 500 м
[Sc Ci fib]
-1.2 -4.1 81 -7 -7 прохладно 1025.6 1005.9
18 20.11 С 3 10 км 9/9 540 м
[Sc]
-0.5 -3.3 81 -5 -5 по сезону 1026.5 1006.8 +3.1
21 20.11 СВ 2 10 км 9/9 750 м
[Sc]
-0.4 -4.6 73 -4 -4 по сезону 1026.7 1007.0
00 21.11 С 2 10 км 9/9 870 м
[Sc]
-1.4 -4.0 82 -5 -5 по сезону 1026.5 1006.8
03 21.11 З 2 10 км 9/9 750 м
[Sc]
-1.4 -4.0 82 -5 -5 по сезону 1026.5 1006.8
06 21.11 СЗ 3 10 км 10/10 600 м
[Sc]
-0.4 -4.6 73 -5 -5 по сезону 1026.2 1006.6 -1.8
09 21.11 СЗ 4 10 км 10/10 630 м
[Sc]
-0.4 -4.9 72 -6 -6 по сезону 1025.6 1006.0
12 21.11 СЗ 4 10 км 10/10 630 м
[Sc]
-0.1 -4.9 70 -5 -5 по сезону 1024.4 1004.8
15 21.11 СЗ 3 10 км 6/6 700 м
[Sc]
-1.2 -5.5 73 -6 -6 по сезону 1023.9 1004.2
18 21.11 СЗ 3 10 км ясно -2.9 -5.9 80 -8 -8 прохладно 1023.8 1004.0 -0.1

 

Местоположение метеостанции Харьков (Харьковская область, Украина): широта 49.97 долгота 36.13 высота над уровнем моря 155 м.

В архиве по умолчанию представлена погода в Харькове за последнюю неделю. Архивные данные за месяц целиком и за предыдущие месяцы, начиная с января 2011 года, Вы можете получить, выбрав интересующий диапазон дат из раскрывающегося списка и нажав кнопку "Ввод!".


*Определитесь, кто Вы:
робот инопланетянин человек

Внимание! Время в таблицах - всемирное. Для получения местного времени необходимо прибавить поправку, которая в Харькове равна 2 ч.

Смотрите также архив погоды в соседних городах и на ближайших метеорологических станциях:

Погода в Золочеве (Львовская область, Украина) (39 км)
Погода в Боходухове (Харьковская область, Украина) (50 км)
Погода в Слобожанском (Донецкая область, Украина) (50 км)
Погода в Коломаке (Харьковская область, Украина) (66 км)
Погода в Белгороде (Белгородская область, Россия) (80 км)
Погода в Краснограде (Харьковская область, Украина) (82 км)
Погода в Великом Бурлуке (Харьковская область, Украина) (90 км)
Погода в Готне (Белгородская область, Россия) (96 км)
Погода в Купянске (Харьковская область, Украина) (119 км)
Погода в Лозовой (Харьковская область, Украина) (120 км)

Пояснения к столбцам:

Ветер - указаны скорость ветра в м/с - средняя за 10 мин, порывы в срок и между сроками (в фигурных скобках) и направление, откуда дует ветер: С - северный, СВ - северо-восточный, В - восточный, ЮВ - юго-восточный, Ю - южный, ЮЗ - юго-западный, З - западный, СЗ - северо-западный.
Видимость - горизонтальная дальность видимости в метрах или километрах. При видимости от 1 до 10 км при отсутствии осадков обычно наблюдается дымка, при ухудшении видимости до 1 км и менее - туман. В сухую погоду видимость может ухудшаться дымом, пылью или мглою.
Явления - указаны атмосферные явления, наблюдавшиеся в срок или в последний час перед сроком; фигурными скобками обозначены явления, наблюдавшиеся между сроками (за 1-3 часа до срока); квадратными скобками обозначены град или гололедные отложения с указанием их диаметра в мм.
Облачность - указаны через наклонную черту общая и нижняя облачность в баллах и высота нижней границы облаков в метрах; квадратными скобками обозначены формы облаков: Ci - перистые, Cs - перисто-слоистые, Cc - перисто-кучевые, Ac - высококучевые, As - высокослоистые, Sc - слоисто-кучевые, Ns - слоисто-дождевые, Cu - кучевые, Cb - кучево-дождевые. Подробнее классификацию облаков см. в Атласе облаков (PDF).
T - Температура воздуха - температура, измеренная на высоте 2 м над землей.
Td - Температура точки росы - температура, при понижении до которой содержащийся в воздухе водяной пар достигнет насыщения.
f - Относительная влажность воздуха - влажноcть воздуха, измеренная на высоте 2 м над землей.
Te - Эффективная температура - температура, которую ощущает одетый по сезону человек в тени. Характеристика душности погоды. При расчете учитывается влияние влажности воздуха и скорости ветра на теплоощущения человека.
Tes - Эффективная температура на солнце - температура, которую ощущает человек, с поправкой на солнечный нагрев. Характеристика знойности погоды. Зависит от высоты солнца над горизонтом, облачности и скорости ветра. Ночью, в пасмурную погоду, а также при ветре 12 м/с и более поправка равна нулю.
P - Атмосферное давление - приведенное к уровню моря атмосферное давление.
Po - Атмосферное давление - измеренное на уровне метеостанции атмосферное давление.
Tmin - Минимальная температура - минимум температуры воздуха на высоте 2 м над землей.
Tmax - Максимальная температура - максимум температуры воздуха на высоте 2 м над землей.
R - Количество осадков - Количество выпавших осадков за период времени, мм. При наведении курсора мыши на число - период времени, за который выпало указанное количество осадков.
R24 - Количество осадков - Количество выпавших осадков за 24 часа, мм.
S - Снежный покров - Высота снежного покрова, см. При наведении курсора мыши на число - состояние снежного покрова и степень покрытия местности в баллах.